OBJECT D

Satellite information

Favourite Embed

Satellite Type and Status

UNKNOWNIN ORBIT

Key statistics

Satellite OBJECT D at a glance.

Uptime

211

Days in orbit

Revolutions

≈ 15.2

Per day

Orbit

SSO

Sun Synchronous Orbit

Inclination

97.4

Latest

Satellite identification and parameters

Extended collection of information and parameters for OBJECT D.

Object identification

Identified? True

Debris? False

Object name: OBJECT D

International designator: 2025-103D

Object number (NORAD): 64051

Object ID (CCSDS): 64051

Country: PEOPLES REPUBLIC OF CHINA (PRC)

Current information (Y/N): Y

RCS size: MEDIUM

Orbital parameters

Period: 94.951 minutes

Inclination: 97.4052 deg

SMA: 6894.34 km

Apoapsis: 518.839 km

Periapsis: 513.572 km

RAAN: 56.9981 deg

Eccentricy: 0.00038198

Argument of periapsis: 116.582 deg

Mean anomaly: 243.5805 deg

Mean motion: 15.16574318 rev/day

Mean motion (dot): 0.0000764 rev/day2

B* drag term: 0.00039454424 1/REarth

Two-line elements (TLE)

Creation date: Dec. 12, 2025, 10:14 a.m.

Reference frame: TEME

Reference center: EARTH

Epoch: Dec. 12, 2025, 7:46 a.m. UTC

TLE line 0: 0 OBJECT D

TLE line 1: 1 64051U 25103D 25346.32417917 .00007640 00000-0 39454-3 0 9996

TLE line 2: 2 64051 97.4052 56.9981 0003820 116.5820 243.5805 15.16574318 31663

Live tracking on map

Real-time ground track for satellite OBJECT D.

In-orbit conjunctions

There are no conjunctions computed for OBJECT D, at the moment. Check back to stay up to date, as we update our databases every day.

Go to all conjunctions

Associated space launch

6 satellites from satellite manufacturer SpaceTY, including 3 multi-spectral Earth observation satellites and 3 technology demonstration satellites for various academic institutions. * Tianyi-29 * Tianyi-34 * Tianyi-35 * Tianyi-42 * Tianyi-45 * Tianyi-46

OBJECT D was lifted into orbit during the mission ‘Zhuque-2E | 6 satellites’, on board a Zhuque-2E space rocket.

The launch took place on May 17, 2025, 4:12 a.m. from Launch Area 96.

For more information about the launch, click the button.

Launch to space Zhuque-2E | 6 satellites
Zhuque-2E | 6 satellites

Agency: N/A

Status: Launch Successful

Launch date: May 17, 2025, 4:12 a.m. UTC

Rocket: Zhuque-2E

Launch pad: Launch Area 96

Location: Jiuquan Satellite Launch Center, People's Republic of China

...

Latest news about this satellite

News about space launch
Landspace launches 6 satellites with enhanced Zhuque-2 rocket

Chinese launch startup Landspace sent six satellites into orbit Saturday with the fifth launch of its Zhuque-2 series methane-fueled rocket. The post Landspace launches 6 satellites with enhanced Zhuque-2 rocket appeared first on SpaceNews.

News about space launch
Launch Roundup: Orbital launches from five countries planned

On the heels of a busy April, activity is ramping up for May with launches… The post Launch Roundup: Orbital launches from five countries planned appeared first on NASASpaceFlight.com.


Newsletter sign-up

Weekly statistics, charts and insights to help you stay on top of the space industry.